Weather History for KJOT - November, 2011

Change the Weather History Date:

Wednesday, November 16, 2011

  Actual Average (KLOT) Record (KLOT)
Temperature  
Mean Temperature 37 °F 41 °F  
Max Temperature 42 °F 48 °F 66 °F (2001)
Min Temperature 32 °F 33 °F 13 °F (1997)
Degree Days  
Heating Degree Days 28 24  
Month to date heating degree days 335  
Since 1 July heating degree days 822  
Cooling Degree Days 0 0  
Month to date cooling degree days 0  
Year to date cooling degree days 862  
Moisture  
Dew Point 15 °F    
Average Humidity 43    
Maximum Humidity 64    
Minimum Humidity 15    
Precipitation  
Precipitation 0.00 in 0.11 in 0.30 in (2013)
Month to date precipitation 1.80  
Year to date precipitation 36.16  
Snow  
Snow 0.00 in 0.10 in 0.00 in (2008)
Month to date snowfall 0.2  
Since 1 July snowfall 0.2  
Since 1 September snowfall 0.2  
Snow Depth -    
Sea Level Pressure  
Sea Level Pressure 30.03 in    
Wind  
Wind Speed 8 mph (WNW)    
Max Wind Speed 14 mph    
Max Gust Speed 22 mph    
Visibility 10 miles    
Events      
T = Trace of Precipitation, MM = Missing Value Source: NWS Daily Summary

Daily Weather History Graph

Daily Weather History Graph

Search for Another Location

Airport or City:

Trip Planner

Search our weather history database for the weather conditions in past years. The results will help you decide how hot, cold, wet, or windy it might be!

Date:

Astronomy

Nov. 16, 2011 Rise Set
Actual Time 6:42 AM CST 4:32 PM CST
Civil Twilight 6:12 AM CST 5:01 PM CST
Nautical Twilight 5:38 AM CST 5:35 PM CST
Astronomical Twilight 5:06 AM CST 6:08 PM CST
Moon 9:46 PM CST (11/16) 11:17 AM CST (11/16)
Length of Visible Light 10h 49m
Length of Day
9h 49m
Waning Gibbous, 70% of the Moon is Illuminated
Nov 16
Waning Gibbous
Nov 18
Last Quarter
Nov 25
New
Dec 2
First Quarter
Dec 10
Full

Hourly Weather History & Observations

Time (CST) Temp. Windchill Dew Point Humidity Pressure Visibility Wind Dir Wind Speed Gust Speed Precip Events Conditions
12:15 AM 42.8 °F 37.5 °F 28.4 °F 57% 29.87 in 10.0 mi WNW 9.2 mph 17.3 mph N/A   Clear
12:35 AM 42.8 °F 36.6 °F 28.4 °F 57% 29.87 in 10.0 mi WNW 11.5 mph 17.3 mph N/A   Clear
12:55 AM 41.0 °F 35.2 °F 26.6 °F 57% 29.88 in 10.0 mi WNW 9.2 mph 19.6 mph N/A   Clear
1:15 AM 41.0 °F 35.2 °F 24.8 °F 53% 29.89 in 10.0 mi WNW 9.2 mph 21.9 mph N/A   Clear
1:35 AM 41.0 °F 35.2 °F 24.8 °F 53% 29.90 in 10.0 mi WNW 9.2 mph 17.3 mph N/A   Clear
1:55 AM 41.0 °F 35.2 °F 23.0 °F 49% 29.91 in 10.0 mi WNW 9.2 mph - N/A   Clear
2:15 AM 39.2 °F 35.0 °F 23.0 °F 52% 29.92 in 10.0 mi WNW 5.8 mph - N/A   Clear
2:35 AM 37.4 °F 32.1 °F 21.2 °F 52% 29.92 in 10.0 mi WNW 6.9 mph - N/A   Clear
2:55 AM 37.4 °F 31.4 °F 21.2 °F 52% 29.92 in 10.0 mi WNW 8.1 mph - N/A   Clear
3:15 AM 37.4 °F 34.9 °F 21.2 °F 52% 29.91 in 10.0 mi WNW 3.5 mph - N/A   Clear
3:35 AM 37.4 °F 33.8 °F 21.2 °F 52% 29.92 in 10.0 mi WNW 4.6 mph - N/A   Clear
3:55 AM 37.4 °F 34.9 °F 21.2 °F 52% 29.93 in 10.0 mi WNW 3.5 mph - N/A   Clear
4:15 AM 35.6 °F 31.7 °F 21.2 °F 56% 29.94 in 10.0 mi WNW 4.6 mph - N/A   Clear
4:35 AM 35.6 °F 30.7 °F 21.2 °F 56% 29.94 in 10.0 mi WNW 5.8 mph - N/A   Clear
4:55 AM 35.6 °F 30.7 °F 21.2 °F 56% 29.94 in 10.0 mi WNW 5.8 mph - N/A   Clear
5:15 AM 35.6 °F 29.2 °F 21.2 °F 56% 29.96 in 10.0 mi WNW 8.1 mph - N/A   Clear
5:35 AM 33.8 °F 27.7 °F 21.2 °F 60% 29.97 in 10.0 mi WNW 6.9 mph - N/A   Clear
5:55 AM 35.6 °F 29.2 °F 21.2 °F 56% 29.98 in 10.0 mi WNW 8.1 mph - N/A   Clear
6:15 AM 33.8 °F 28.6 °F 21.2 °F 60% 29.99 in 10.0 mi WNW 5.8 mph - N/A   Clear
6:35 AM 32.0 °F 27.5 °F 21.2 °F 64% 29.99 in 10.0 mi WNW 4.6 mph - N/A   Clear
6:55 AM 32.0 °F 27.5 °F 21.2 °F 64% 30.01 in 10.0 mi West 4.6 mph - N/A   Clear
7:15 AM 32.0 °F 27.5 °F 21.2 °F 64% 30.02 in 10.0 mi West 4.6 mph - N/A   Clear
7:35 AM 32.0 °F 26.4 °F 21.2 °F 64% 30.03 in 10.0 mi West 5.8 mph - N/A   Clear
7:55 AM 33.8 °F 29.6 °F 21.2 °F 60% 30.03 in 10.0 mi West 4.6 mph - N/A   Clear
8:15 AM 33.8 °F 25.3 °F 21.2 °F 60% 30.04 in 10.0 mi WNW 11.5 mph 17.3 mph N/A   Clear
8:35 AM 35.6 °F 28.0 °F 21.2 °F 56% 30.06 in 10.0 mi West 10.4 mph 19.6 mph N/A   Clear
8:55 AM 35.6 °F 27.5 °F 17.6 °F 48% 30.06 in 10.0 mi NW 11.5 mph 21.9 mph N/A   Clear
9:15 AM 35.6 °F 28.6 °F 17.6 °F 48% 30.07 in 10.0 mi WNW 9.2 mph 16.1 mph N/A   Clear
9:35 AM 35.6 °F 29.9 °F 17.6 °F 48% 30.08 in 10.0 mi WNW 6.9 mph - N/A   Clear
9:55 AM 35.6 °F 27.5 °F 17.6 °F 48% 30.09 in 10.0 mi WNW 11.5 mph - N/A   Clear
10:15 AM 37.4 °F 28.9 °F 17.6 °F 45% 30.08 in 10.0 mi NW 13.8 mph - N/A   Clear
10:35 AM 37.4 °F 30.3 °F 14.0 °F 38% 30.07 in 10.0 mi WNW 10.4 mph 16.1 mph N/A   Clear
10:55 AM 37.4 °F 29.3 °F 14.0 °F 38% 30.07 in 10.0 mi NW 12.7 mph 18.4 mph N/A   Clear
11:15 AM 37.4 °F 30.3 °F 12.2 °F 36% 30.06 in 10.0 mi WNW 10.4 mph - N/A   Clear
11:35 AM 39.2 °F 32.5 °F 14.0 °F 36% 30.06 in 10.0 mi WNW 10.4 mph 18.4 mph N/A   Clear
11:55 AM 41.0 °F 34.3 °F 14.0 °F 33% 30.05 in 10.0 mi WNW 11.5 mph 19.6 mph N/A   Clear
12:15 PM 41.0 °F 34.3 °F 12.2 °F 31% 30.06 in 10.0 mi WNW 11.5 mph 16.1 mph N/A   Clear
12:35 PM 41.0 °F 34.3 °F 12.2 °F 31% 30.06 in 10.0 mi WNW 11.5 mph 18.4 mph N/A   Clear
12:55 PM 41.0 °F 35.8 °F 12.2 °F 31% 30.07 in 10.0 mi WNW 8.1 mph 16.1 mph N/A   Clear
1:15 PM 41.0 °F 34.3 °F 10.4 °F 29% 30.07 in 10.0 mi NW 11.5 mph - N/A   Clear
1:35 PM 41.0 °F 33.9 °F 1.4 °F 19% 30.08 in 10.0 mi West 12.7 mph 19.6 mph N/A   Clear
1:55 PM 41.0 °F 35.2 °F 5.0 °F 23% 30.09 in 10.0 mi WNW 9.2 mph 16.1 mph N/A   Clear
2:15 PM 41.0 °F 34.3 °F 5.0 °F 23% 30.09 in 10.0 mi NW 11.5 mph 18.4 mph N/A   Clear
2:35 PM 41.0 °F 35.2 °F 3.2 °F 21% 30.09 in 10.0 mi WNW 9.2 mph 16.1 mph N/A   Clear
2:55 PM 41.0 °F 34.3 °F -0.4 °F 18% 30.10 in 10.0 mi NW 11.5 mph 16.1 mph N/A   Clear
3:15 PM 41.0 °F 33.9 °F -4.0 °F 15% 30.11 in 10.0 mi WNW 12.7 mph 18.4 mph N/A   Clear
3:35 PM 41.0 °F 36.4 °F -4.0 °F 15% 30.11 in 10.0 mi WNW 6.9 mph 16.1 mph N/A   Clear
3:55 PM 39.2 °F 34.2 °F -0.4 °F 19% 30.11 in 10.0 mi WNW 6.9 mph - N/A   Clear
4:15 PM 39.2 °F 34.2 °F -2.2 °F 17% 30.12 in 10.0 mi WNW 6.9 mph - N/A   Clear
4:35 PM 37.4 °F 32.1 °F -0.4 °F 20% 30.13 in 10.0 mi WNW 6.9 mph - N/A   Clear
4:55 PM 37.4 °F 33.8 °F 3.2 °F 24% 30.13 in 10.0 mi West 4.6 mph - N/A   Clear
5:15 PM 37.4 °F 33.8 °F 6.8 °F 28% 30.14 in 10.0 mi West 4.6 mph - N/A   Clear
5:35 PM 37.4 °F 32.8 °F 5.0 °F 26% 30.15 in 10.0 mi West 5.8 mph - N/A   Clear
5:55 PM 37.4 °F 33.8 °F 6.8 °F 28% 30.15 in 10.0 mi West 4.6 mph - N/A   Clear
6:15 PM 35.6 °F 31.7 °F 8.6 °F 33% 30.16 in 10.0 mi West 4.6 mph - N/A   Clear
6:35 PM 35.6 °F - 10.4 °F 35% 30.16 in 10.0 mi Calm Calm - N/A   Clear
6:55 PM 33.8 °F 30.8 °F 12.2 °F 41% 30.16 in 10.0 mi WSW 3.5 mph - N/A   Clear
7:15 PM 32.0 °F 28.7 °F 14.0 °F 48% 30.16 in 10.0 mi WSW 3.5 mph - N/A   Clear
7:35 PM 32.0 °F 28.7 °F 14.0 °F 48% 30.16 in 10.0 mi WSW 3.5 mph - N/A   Clear
7:55 PM 32.0 °F 27.5 °F 14.0 °F 48% 30.16 in 10.0 mi West 4.6 mph - N/A   Clear
8:15 PM 32.0 °F 26.4 °F 14.0 °F 48% 30.17 in 10.0 mi WSW 5.8 mph - N/A   Clear
8:35 PM 32.0 °F 26.4 °F 14.0 °F 48% 30.17 in 10.0 mi West 5.8 mph - N/A   Clear
8:55 PM 32.0 °F 26.4 °F 12.2 °F 44% 30.17 in 10.0 mi WSW 5.8 mph - N/A   Clear
9:15 PM 30.2 °F 26.7 °F 14.0 °F 51% 30.16 in 10.0 mi WSW 3.5 mph - N/A   Clear
9:35 PM 32.0 °F 27.5 °F 14.0 °F 48% 30.16 in 10.0 mi WSW 4.6 mph - N/A   Clear
9:55 PM 30.2 °F - 14.0 °F 51% 30.15 in 10.0 mi Calm Calm - N/A   Clear
10:15 PM 30.2 °F - 14.0 °F 51% 30.15 in 10.0 mi Calm Calm - N/A   Clear
10:35 PM 26.6 °F - 15.8 °F 64% 30.15 in 10.0 mi Calm Calm - N/A   Clear
10:55 PM 28.4 °F 24.6 °F 15.8 °F 59% 30.14 in 10.0 mi SW 3.5 mph - N/A   Clear
11:15 PM 30.2 °F - 14.0 °F 51% 30.14 in 10.0 mi Calm Calm - N/A   Clear
11:35 PM 30.2 °F 25.4 °F 14.0 °F 51% 30.14 in 10.0 mi SW 4.6 mph - N/A   Clear
11:55 PM 30.2 °F 23.4 °F 12.2 °F 47% 30.14 in 10.0 mi WSW 6.9 mph - N/A   Clear